Fort Rucker / Ozark, AL

3:02 PM CDT on July 23, 2017 (GMT -0500)
Fort Rucker / Ozark

Weather History for KLOR - October, 2011

Change the Weather History Date:

Sunday, October 23, 2011

  Actual Average (KOZR) Record (KOZR)
Temperature  
Mean Temperature 56 °F -  
Max Temperature 75 °F 75 °F 85 °F (2007)
Min Temperature 36 °F 51 °F 39 °F (1997)
Degree Days  
Heating Degree Days 10    
Growing Degree Days 6 (Base 50)    
Moisture  
Dew Point 40 °F    
Average Humidity 65    
Maximum Humidity 93    
Minimum Humidity 27    
Precipitation  
Precipitation 0.00 in - - ()
Sea Level Pressure  
Sea Level Pressure 30.07 in    
Wind  
Wind Speed 1 mph (ENE)    
Max Wind Speed 7 mph    
Max Gust Speed -    
Visibility 10 miles    
Events      
Averages and records for this station are not official NWS values.
T = Trace of Precipitation, MM = Missing Value Source: NWS Daily Summary

Daily Weather History Graph

Daily Weather History Graph

Search for Another Location

Airport or City:

Trip Planner

Search our weather history database for the weather conditions in past years. The results will help you decide how hot, cold, wet, or windy it might be!

Date:

Astronomy

Oct. 23, 2011 Rise Set
Actual Time 6:51 AM CDT 6:02 PM CDT
Civil Twilight 6:26 AM CDT 6:27 PM CDT
Nautical Twilight 5:58 AM CDT 6:55 PM CDT
Astronomical Twilight 5:30 AM CDT 7:23 PM CDT
Moon 3:10 AM CDT 3:42 PM CDT
Length of Visible Light 12h 00m
Length of Day
11h 11m
Waning Crescent, 14% of the Moon is Illuminated
Oct 23
Waning Crescent
Oct 26
New
Nov 2
First Quarter
Nov 10
Full
Nov 18
Last Quarter

Hourly Weather History & Observations

Time (CDT) Temp. Dew Point Humidity Pressure Visibility Wind Dir Wind Speed Gust Speed Precip Events Conditions
12:53 AM 41.0 °F 37.9 °F 89% 30.07 in 10.0 mi Calm Calm - N/A   Clear
1:53 AM 39.9 °F 37.0 °F 89% 30.06 in 10.0 mi Calm Calm - N/A   Clear
2:53 AM 39.0 °F 36.0 °F 89% 30.06 in 10.0 mi Calm Calm - N/A   Clear
3:53 AM 37.9 °F 36.0 °F 93% 30.07 in 10.0 mi Calm Calm - N/A   Clear
4:53 AM 37.0 °F 35.1 °F 93% 30.07 in 10.0 mi Calm Calm - N/A   Clear
5:53 AM 36.0 °F 34.0 °F 93% 30.07 in 10.0 mi Calm Calm - N/A   Clear
6:53 AM 36.0 °F 34.0 °F 93% 30.09 in 10.0 mi Calm Calm - N/A   Clear
7:53 AM 41.0 °F 37.9 °F 89% 30.11 in 10.0 mi Calm Calm - N/A   Clear
8:53 AM 54.0 °F 44.1 °F 69% 30.12 in 10.0 mi Calm Calm - N/A   Clear
9:53 AM 64.0 °F 45.0 °F 50% 30.12 in 10.0 mi Calm Calm - N/A   Clear
10:53 AM 68.0 °F 41.0 °F 37% 30.12 in 10.0 mi East 6.9 mph - N/A   Clear
11:53 AM 70.0 °F 41.0 °F 35% 30.09 in 10.0 mi East 3.5 mph - N/A   Clear
12:53 PM 72.0 °F 41.0 °F 33% 30.07 in 10.0 mi Variable 5.8 mph - N/A   Clear
1:53 PM 72.0 °F 39.9 °F 31% 30.04 in 10.0 mi Variable 3.5 mph - N/A   Clear
2:53 PM 73.9 °F 39.9 °F 29% 30.03 in 10.0 mi Calm Calm - N/A   Clear
3:53 PM 75.0 °F 39.0 °F 27% 30.03 in 10.0 mi WNW 5.8 mph - N/A   Clear
4:53 PM 75.0 °F 39.9 °F 28% 30.03 in 10.0 mi Calm Calm - N/A   Clear
5:53 PM 69.1 °F 42.1 °F 38% 30.04 in 10.0 mi Calm Calm - N/A   Clear
6:53 PM 59.0 °F 44.6 °F 59% 30.06 in 10.0 mi Calm Calm - N/A   Clear
7:53 PM 55.9 °F 44.1 °F 64% 30.07 in 10.0 mi Calm Calm - N/A   Clear
8:53 PM 52.0 °F 45.0 °F 77% 30.08 in 10.0 mi Calm Calm - N/A   Clear
9:53 PM 50.0 °F 45.0 °F 83% 30.09 in 10.0 mi Calm Calm - N/A   Clear
10:53 PM 48.9 °F 45.0 °F 86% 30.10 in 10.0 mi Calm Calm - N/A   Clear
11:53 PM 46.9 °F 44.1 °F 90% 30.09 in 10.0 mi Calm Calm - N/A   Clear